Location: Unspecified
(0.0000°N, 0.0000°E)
Time: 18:44:46
(UTC+00:00)

Vanguard 3 - Pass Details

Date: 02 October 2023
Orbit: 507 x 3241 km, 33.3° (Epoch: 29 November)

Event Time Altitude Azimuth Distance (km) Brightness Sun altitude
Rises 14:32:46 0° 245° (WSW) 6,966 12.5 49.0°
Reaches altitude 10° 14:37:23 10° 248° (WSW) 6,089 12.5 47.9°
Maximum altitude 14:56:45 58° 322° (NW) 3,394 11.3 43.1°
Drops below altitude 10° 15:12:04 10° 39° (NE) 4,912 10.9 39.2°
Sets 15:15:22 0° 44° (NE) 5,604 11.1 38.4°
